Weather History for Novato, CA

Change the Weather History Date:

Tuesday, October 1, 2013

  Actual Average (KAPC) Record (KAPC)
Temperature  
Mean Temperature 60 °F 62 °F  
Max Temperature 75 °F 78 °F 98 °F (2012)
Min Temperature 44 °F 46 °F 38 °F (2006)
Degree Days  
Heating Degree Days 6    
Month to date heating degree days  
Since 1 July heating degree days  
Cooling Degree Days 0    
Month to date cooling degree days  
Year to date cooling degree days  
Growing Degree Days 10 (Base 50)    
Moisture  
Dew Point 47 °F    
Average Humidity 65    
Maximum Humidity 100    
Minimum Humidity 36    
Precipitation  
Precipitation 0.00 in - 0.81 in (1926)
Month to date precipitation  
Year to date precipitation  
Since 1 July precipitation  
Sea Level Pressure  
Sea Level Pressure 29.97 in    
Wind  
Wind Speed 4 mph (NW)    
Max Wind Speed 15 mph    
Max Gust Speed 21 mph    
Visibility 10 miles    
Events      
T = Trace of Precipitation, MM = Missing Value Source: NWS Daily Summary

Daily Weather History Graph

Daily Weather History Graph

Search for Another Location

Airport:

Trip Planner

Search our weather history database for the weather conditions in past years. The results will help you decide how hot, cold, wet, or windy it might be!

Date:

Astronomy

Oct. 01, 2013 Rise Set
Actual Time 7:06 AM PDT 6:52 PM PDT
Civil Twilight 6:39 AM PDT 7:18 PM PDT
Nautical Twilight 6:09 AM PDT 7:49 PM PDT
Astronomical Twilight 5:38 AM PDT 8:20 PM PDT
Moon 3:48 AM PDT (10/1) 4:57 PM PDT (10/1)
Length of Visible Light 12h 38m
Length of Day
11h 46m
Waning Crescent, 11% of the Moon is Illuminated
Oct 1
Waning Crescent
Oct 4
New
Oct 11
First Quarter
Oct 18
Full
Oct 26
Last Quarter

Hourly Weather History & Observations

Time (PDT) Temp. Dew Point Humidity Pressure Visibility Wind Dir Wind Speed Gust Speed Precip Events Conditions
12:15 AM 57.2 °F 46.4 °F 67% 29.98 in 10.0 mi West 8.1 mph - N/A   Clear
12:35 AM 57.2 °F 46.4 °F 67% 29.99 in 10.0 mi Calm Calm - N/A   Clear
12:55 AM 55.4 °F 46.4 °F 72% 29.98 in 10.0 mi SW 3.5 mph - N/A   Clear
1:15 AM 55.4 °F 44.6 °F 67% 29.98 in 10.0 mi Calm Calm - N/A   Clear
1:35 AM 53.6 °F 44.6 °F 72% 29.99 in 10.0 mi NW 3.5 mph - N/A   Clear
1:55 AM 50.0 °F 44.6 °F 82% 29.99 in 10.0 mi NE 3.5 mph - N/A   Clear
2:15 AM 50.0 °F 44.6 °F 82% 29.99 in 10.0 mi ESE 3.5 mph - N/A   Clear
2:35 AM 51.8 °F 46.4 °F 82% 29.99 in 10.0 mi East 4.6 mph - N/A   Clear
2:55 AM 50.0 °F 46.4 °F 87% 29.98 in 10.0 mi East 4.6 mph - N/A   Clear
3:15 AM 50.0 °F 46.4 °F 87% 29.98 in 10.0 mi East 3.5 mph - N/A   Clear
3:35 AM 50.0 °F 46.4 °F 87% 29.98 in 10.0 mi East 3.5 mph - N/A   Clear
3:55 AM 50.0 °F 46.4 °F 87% 29.98 in 10.0 mi ESE 3.5 mph - N/A   Clear
4:15 AM 46.4 °F 44.6 °F 93% 29.98 in 10.0 mi Calm Calm - N/A   Clear
4:35 AM 48.2 °F 46.4 °F 93% 29.98 in 10.0 mi Calm Calm - N/A   Clear
4:55 AM 46.4 °F 44.6 °F 93% 29.98 in 10.0 mi Calm Calm - N/A   Clear
5:15 AM 46.4 °F 46.4 °F 100% 29.98 in 10.0 mi Calm Calm - N/A   Clear
5:35 AM 46.4 °F 46.4 °F 100% 29.99 in 10.0 mi Calm Calm - N/A   Clear
5:55 AM 46.4 °F 46.4 °F 100% 29.99 in 9.0 mi Calm Calm - N/A   Clear
6:15 AM 46.4 °F 46.4 °F 100% 29.99 in 9.0 mi Calm Calm - N/A   Clear
6:35 AM 46.4 °F 46.4 °F 100% 29.99 in 10.0 mi Calm Calm - N/A   Clear
6:55 AM 46.4 °F 46.4 °F 100% 30.00 in 10.0 mi Calm Calm - N/A   Clear
7:15 AM 46.4 °F 46.4 °F 100% 30.00 in 8.0 mi Calm Calm - N/A   Clear
7:35 AM 44.6 °F 44.6 °F 100% 30.01 in 8.0 mi Calm Calm - N/A   Clear
7:55 AM 46.4 °F 46.4 °F 100% 30.01 in 6.0 mi Calm Calm - N/A   Clear
8:15 AM 48.2 °F 48.2 °F 100% 30.01 in 8.0 mi Calm Calm - N/A   Clear
8:35 AM 51.8 °F 50.0 °F 94% 30.02 in 8.0 mi Calm Calm - N/A   Clear
8:55 AM 53.6 °F 50.0 °F 88% 30.02 in 9.0 mi East 3.5 mph - N/A   Clear
9:15 AM 55.4 °F 48.2 °F 77% 30.02 in 10.0 mi Calm Calm - N/A   Clear
9:35 AM 59.0 °F 48.2 °F 67% 30.02 in 10.0 mi East 3.5 mph - N/A   Clear
9:55 AM 62.6 °F 46.4 °F 55% 30.02 in 10.0 mi NNW 9.2 mph - N/A   Clear
10:15 AM 64.4 °F 46.4 °F 52% 30.02 in 10.0 mi NNW 8.1 mph - N/A   Clear
10:35 AM 64.4 °F 46.4 °F 52% 30.02 in 10.0 mi WNW 9.2 mph - N/A   Clear
10:55 AM 64.4 °F 46.4 °F 52% 30.02 in 10.0 mi NW 8.1 mph - N/A   Clear
11:15 AM 66.2 °F 46.4 °F 49% 30.02 in 10.0 mi NW 6.9 mph - N/A   Clear
11:35 AM 68.0 °F 46.4 °F 46% 30.01 in 10.0 mi NNW 10.4 mph - N/A   Clear
11:55 AM 68.0 °F 46.4 °F 46% 30.01 in 10.0 mi NNW 9.2 mph - N/A   Clear
12:15 PM 69.8 °F 46.4 °F 43% 30.00 in 10.0 mi NNW 4.6 mph - N/A   Clear
12:35 PM 71.6 °F 46.4 °F 41% 30.00 in 10.0 mi NNW 9.2 mph - N/A   Clear
12:55 PM 71.6 °F 46.4 °F 41% 30.00 in 10.0 mi North 8.1 mph - N/A   Clear
1:15 PM 73.4 °F 46.4 °F 38% 29.99 in 10.0 mi NNW 5.8 mph - N/A   Clear
1:35 PM 73.4 °F 46.4 °F 38% 29.98 in 10.0 mi Calm Calm - N/A   Clear
1:55 PM 73.4 °F 46.4 °F 38% 29.97 in 10.0 mi West 9.2 mph 16.1 mph N/A   Clear
2:15 PM 73.4 °F 46.4 °F 38% 29.97 in 10.0 mi WSW 15.0 mph 18.4 mph N/A   Clear
2:35 PM 73.4 °F 46.4 °F 38% 29.96 in 10.0 mi West 12.7 mph - N/A   Clear
2:55 PM 73.4 °F 46.4 °F 38% 29.96 in 10.0 mi NW 5.8 mph - N/A   Clear
3:15 PM 75.2 °F 46.4 °F 36% 29.95 in 10.0 mi North 4.6 mph - N/A   Clear
3:35 PM 75.2 °F 46.4 °F 36% 29.95 in 10.0 mi SSW 11.5 mph - N/A   Clear
3:55 PM 75.2 °F 46.4 °F 36% 29.95 in 10.0 mi SW 6.9 mph - N/A   Clear
4:15 PM 75.2 °F 46.4 °F 36% 29.94 in 10.0 mi NW 6.9 mph - N/A   Clear
4:35 PM 75.2 °F 46.4 °F 36% 29.93 in 10.0 mi West 4.6 mph - N/A   Clear
4:55 PM 73.4 °F 48.2 °F 41% 29.93 in 10.0 mi WSW 11.5 mph 17.3 mph N/A   Clear
5:15 PM 73.4 °F 48.2 °F 41% 29.92 in 10.0 mi SW 15.0 mph 20.7 mph N/A   Clear
5:35 PM 71.6 °F 48.2 °F 43% 29.93 in 10.0 mi WSW 13.8 mph 18.4 mph N/A   Clear
5:55 PM 71.6 °F 48.2 °F 43% 29.93 in 10.0 mi WSW 12.7 mph - N/A   Clear
6:15 PM 68.0 °F 48.2 °F 49% 29.92 in 10.0 mi WSW 8.1 mph - N/A   Clear
6:35 PM 68.0 °F 46.4 °F 46% 29.92 in 10.0 mi Calm Calm - N/A   Clear
6:55 PM 66.2 °F 48.2 °F 52% 29.92 in 10.0 mi SSW 4.6 mph - N/A   Clear
7:15 PM 64.4 °F 48.2 °F 56% 29.92 in 10.0 mi Calm Calm - N/A   Clear
7:35 PM 64.4 °F 48.2 °F 56% 29.92 in 10.0 mi Calm Calm - N/A   Clear
7:55 PM 62.6 °F 48.2 °F 59% 29.93 in 10.0 mi SSE 3.5 mph - N/A   Clear
8:15 PM 62.6 °F 48.2 °F 59% 29.93 in 10.0 mi Calm Calm - N/A   Clear
8:35 PM 57.2 °F 48.2 °F 72% 29.94 in 10.0 mi ENE 3.5 mph - N/A   Clear
8:55 PM 57.2 °F 48.2 °F 72% 29.94 in 10.0 mi Calm Calm - N/A   Clear
9:15 PM 53.6 °F 46.4 °F 77% 29.95 in 10.0 mi Calm Calm - N/A   Clear
9:35 PM 55.4 °F 46.4 °F 72% 29.95 in 10.0 mi Calm Calm - N/A   Clear
9:55 PM 59.0 °F 48.2 °F 67% 29.95 in 10.0 mi Calm Calm - N/A   Clear
10:15 PM 62.6 °F 48.2 °F 59% 29.95 in 10.0 mi NW 4.6 mph - N/A   Clear
10:35 PM 62.6 °F 46.4 °F 55% 29.95 in 10.0 mi NNW 9.2 mph - N/A   Clear
10:55 PM 62.6 °F 46.4 °F 55% 29.95 in 10.0 mi NW 10.4 mph - N/A   Clear
11:15 PM 62.6 °F 46.4 °F 55% 29.95 in 10.0 mi NW 8.1 mph - N/A   Clear
11:35 PM 60.8 °F 48.2 °F 63% 29.95 in 10.0 mi North 3.5 mph - N/A   Clear
11:55 PM 60.8 °F 46.4 °F 59% 29.95 in 10.0 mi NNW 4.6 mph - N/A   Clear